| time (UTC) | temp F | wind direction | speed knots | gust knots | rain 1hr in | rain 24hr in | rain mn in | humidity % | barometer mb |
| 20260906090636 | 79 | 355 | 1.7 | 2.6 | 0.00 | 0.01 | 0.01 | 75 | 1023.1 |
| 20260906090132 | 78 | 355 | 1.7 | 2.6 | 0.00 | 0.01 | 0.01 | 77 | 1023.1 |
| 20260906085633 | 77 | 3 | 1.7 | 2.6 | 0.00 | 0.01 | 0.01 | 78 | 1023.1 |
| 20260906085132 | 77 | 10 | 1.7 | 2.6 | 0.00 | 0.01 | 0.01 | 81 | 1023.1 |
| 20260906084633 | 76 | 4 | 1.7 | 2.6 | 0.00 | 0.01 | 0.01 | 83 | 1023.1 |
| 20260906084130 | 76 | 7 | 1.7 | 3.5 | 0.00 | 0.01 | 0.01 | 82 | 1023.1 |
| 20260906083132 | 75 | 4 | 0.9 | 3.5 | 0.00 | 0.01 | 0.01 | 87 | 1023.0 |
| 20260906082636 | 75 | 20 | 0.9 | 2.6 | 0.00 | 0.01 | 0.01 | 87 | 1023.0 |
| 20260906082135 | 74 | 326 | 0.0 | 1.7 | 0.00 | 0.01 | 0.01 | 89 | 1023.0 |
| 20260906081631 | 73 | 310 | 0.9 | 1.7 | 0.00 | 0.01 | 0.01 | 90 | 1023.1 |
| 20260906081137 | 73 | 8 | 0.0 | 1.7 | 0.00 | 0.01 | 0.01 | 92 | 1023.0 |
| 20260906080633 | 72 | 313 | 0.9 | 1.7 | 0.00 | 0.01 | 0.01 | 93 | 1023.0 |
| 20260906080132 | 71 | 13 | 1.7 | 1.7 | 0.00 | 0.01 | 0.01 | 94 | 1022.9 |
| 20260906075626 | 71 | 38 | 0.9 | 1.7 | 0.00 | 0.01 | 0.01 | 95 | 1022.9 |
| 20260906075134 | 71 | 340 | 0.0 | 2.6 | 0.00 | 0.01 | 0.01 | 94 | 1022.9 |
| 20260906074622 | 70 | 8 | 1.7 | 2.6 | 0.00 | 0.01 | 0.01 | 94 | 1022.9 |
| 20260906074125 | 70 | 7 | 0.9 | 1.7 | 0.00 | 0.01 | 0.01 | 95 | 1022.8 |
| 20260906073612 | 70 | 348 | 1.7 | 1.7 | 0.00 | 0.01 | 0.01 | 94 | 1022.8 |
| 20260906073109 | 70 | 0 | 0.9 | 1.7 | 0.00 | 0.01 | 0.01 | 95 | 1022.7 |
| 20260906072610 | 70 | 350 | 0.0 | 1.7 | 0.00 | 0.01 | 0.01 | 95 | 1022.7 |
| 20260906072103 | 69 | 47 | 0.9 | 1.7 | 0.00 | 0.01 | 0.01 | 95 | 1022.7 |
| 20260906071604 | 69 | 250 | 0.0 | 0.9 | 0.00 | 0.01 | 0.01 | 95 | 1022.6 |
| 20260906071103 | 69 | 200 | 0.0 | 0.9 | 0.00 | 0.01 | 0.01 | 96 | 1022.7 |
| 20260906070603 | 69 | 138 | 0.0 | 0.9 | 0.00 | 0.01 | 0.01 | 95 | 1022.6 |
| 20260906065554 | 68 | 145 | 0.0 | 0.9 | 0.00 | 0.01 | 0.01 | 96 | 1022.5 |
| 20260906065054 | 68 | 145 | 0.0 | 0.0 | 0.00 | 0.01 | 0.01 | 96 | 1022.5 |
| 20260906064558 | 68 | 145 | 0.0 | 0.0 | 0.00 | 0.01 | 0.01 | 96 | 1022.5 |
| 20260906064055 | 68 | 145 | 0.0 | 0.9 | 0.00 | 0.01 | 0.01 | 96 | 1022.5 |
| 20260906063553 | 68 | 145 | 0.0 | 0.9 | 0.00 | 0.01 | 0.01 | 96 | 1022.4 |
| 20260906062553 | 68 | 199 | 0.0 | 0.9 | 0.00 | 0.01 | 0.01 | 96 | 1022.4 |
| 20260906062053 | 68 | 183 | 0.0 | 0.0 | 0.00 | 0.01 | 0.01 | 96 | 1022.4 |
| 20260906061555 | 67 | 185 | 0.0 | 0.0 | 0.00 | 0.01 | 0.01 | 96 | 1022.4 |
| 20260906061042 | 67 | 183 | 0.0 | 0.0 | 0.00 | 0.01 | 0.01 | 96 | 1022.3 |
| 20260906060550 | 67 | 183 | 0.0 | 0.0 | 0.00 | 0.01 | 0.01 | 96 | 1022.2 |
| 20260906055034 | 67 | 168 | 0.0 | 0.0 | 0.00 | 0.01 | 0.01 | 96 | 1022.2 |
| 20260906054535 | 66 | 168 | 0.0 | 0.9 | 0.00 | 0.01 | 0.01 | 96 | 1022.1 |
| 20260906053534 | 67 | 193 | 0.0 | 0.9 | 0.01 | 0.01 | 0.01 | 96 | 1022.1 |
| 20260906053033 | 67 | 159 | 0.0 | 0.0 | 0.01 | 0.01 | 0.01 | 96 | 1022.1 |
| 20260906052532 | 67 | 152 | 0.0 | 0.0 | 0.01 | 0.01 | 0.01 | 96 | 1022.1 |
| 20260906052034 | 66 | 142 | 0.0 | 0.9 | 0.01 | 0.01 | 0.01 | 96 | 1022.1 |
| 20260906051535 | 66 | 142 | 0.0 | 0.9 | 0.01 | 0.01 | 0.01 | 96 | 1022.0 |
| 20260906051027 | 67 | 243 | 0.0 | 0.9 | 0.01 | 0.01 | 0.01 | 96 | 1021.9 |
| 20260906050037 | 67 | 243 | 0.0 | 0.9 | 0.01 | 0.00 | 0.01 | 96 | 1021.9 |
| 20260906045031 | 67 | 243 | 0.0 | 0.9 | 0.01 | 0.00 | 0.01 | 96 | 1022.0 |
| 20260906044524 | 67 | 217 | 0.0 | 1.7 | 0.01 | 0.00 | 0.01 | 96 | 1021.9 |
| 20260906044028 | 67 | 217 | 0.9 | 1.7 | 0.01 | 0.00 | 0.00 | 96 | 1021.9 |
| 20260906043527 | 67 | 207 | 1.7 | 1.7 | 0.00 | 0.00 | 0.00 | 96 | 1021.9 |
| 20260906042528 | 67 | 227 | 1.7 | 1.7 | 0.00 | 0.00 | 0.00 | 96 | 1022.0 |
| 20260906041022 | 67 | 226 | 1.7 | 2.6 | 0.00 | 0.00 | 0.00 | 96 | 1021.8 |
| 20260906040525 | 67 | 228 | 1.7 | 2.6 | 0.00 | 0.00 | 0.00 | 96 | 1021.7 |
| 20260906040021 | 67 | 237 | 1.7 | 2.6 | 0.00 | 0.00 | 0.00 | 96 | 1021.7 |
| 20260906035521 | 67 | 241 | 1.7 | 2.6 | 0.00 | 0.00 | 0.00 | 96 | 1021.7 |
| 20260906035018 | 67 | 220 | 1.7 | 3.5 | 0.00 | 0.00 | 0.00 | 96 | 1021.6 |
| 20260906034456 | 67 | 226 | 2.6 | 4.3 | 0.00 | 0.00 | 0.00 | 96 | 1021.6 |
| 20260906033449 | 67 | 219 | 3.5 | 4.3 | 0.00 | 0.00 | 0.00 | 96 | 1021.5 |
| 20260906032952 | 67 | 227 | 3.5 | 4.3 | 0.00 | 0.00 | 0.00 | 96 | 1021.5 |
| 20260906032451 | 67 | 228 | 3.5 | 5.2 | 0.00 | 0.00 | 0.00 | 96 | 1021.6 |
| 20260906031951 | 67 | 231 | 3.5 | 5.2 | 0.00 | 0.00 | 0.00 | 95 | 1021.6 |
| 20260906031447 | 67 | 233 | 5.2 | 5.2 | 0.00 | 0.00 | 0.00 | 96 | 1021.5 |
| 20260906030947 | 68 | 221 | 4.3 | 5.2 | 0.00 | 0.00 | 0.00 | 96 | 1021.4 |
| 20260906025934 | 68 | 219 | 4.3 | 5.2 | 0.00 | 0.00 | 0.00 | 96 | 1021.5 |
| 20260906024936 | 68 | 230 | 4.3 | 5.2 | 0.00 | 0.00 | 0.00 | 95 | 1021.4 |
| 20260906024431 | 68 | 226 | 4.3 | 6.1 | 0.00 | 0.00 | 0.00 | 95 | 1021.5 |
| 20260906023934 | 67 | 227 | 5.2 | 6.1 | 0.00 | 0.00 | 0.00 | 95 | 1021.5 |
| 20260906023434 | 67 | 219 | 5.2 | 6.1 | 0.00 | 0.00 | 0.00 | 95 | 1021.5 |
| 20260906022935 | 67 | 226 | 5.2 | 5.2 | 0.00 | 0.00 | 0.00 | 95 | 1021.5 |
| 20260906022435 | 67 | 223 | 3.5 | 5.2 | 0.00 | 0.00 | 0.00 | 95 | 1021.5 |
| 20260906021932 | 67 | 243 | 3.5 | 5.2 | 0.00 | 0.00 | 0.00 | 94 | 1021.4 |
| 20260906021436 | 67 | 238 | 3.5 | 7.8 | 0.00 | 0.00 | 0.00 | 94 | 1021.4 |
| 20260906020931 | 68 | 240 | 4.3 | 7.8 | 0.00 | 0.00 | 0.00 | 95 | 1021.4 |
| 20260906020426 | 68 | 221 | 6.1 | 7.8 | 0.00 | 0.00 | 0.00 | 94 | 1021.5 |
| 20260906015924 | 68 | 217 | 5.2 | 8.7 | 0.00 | 0.00 | 0.00 | 94 | 1021.5 |
| 20260906015424 | 68 | 237 | 5.2 | 8.7 | 0.00 | 0.00 | 0.00 | 93 | 1021.4 |
| 20260906014422 | 69 | 234 | 5.2 | 6.1 | 0.00 | 0.00 | 0.00 | 93 | 1021.5 |
| 20260906013919 | 69 | 233 | 2.6 | 3.5 | 0.00 | 0.00 | 0.00 | 93 | 1021.5 |
| 20260906013415 | 69 | 204 | 0.9 | 4.3 | 0.00 | 0.00 | 0.00 | 92 | 1021.6 |
| 20260906012409 | 69 | 228 | 3.5 | 4.3 | 0.00 | 0.00 | 0.00 | 91 | 1021.5 |
| 20260906011904 | 69 | 227 | 4.3 | 4.3 | 0.00 | 0.00 | 0.00 | 91 | 1021.6 |
| 20260906011348 | 69 | 219 | 1.7 | 2.6 | 0.00 | 0.00 | 0.00 | 91 | 1021.7 |
| 20260906010850 | 69 | 231 | 1.7 | 2.6 | 0.00 | 0.00 | 0.00 | 91 | 1021.7 |
| 20260906010347 | 69 | 224 | 0.0 | 1.7 | 0.00 | 0.00 | 0.00 | 91 | 1021.6 |
| 20260906005848 | 69 | 202 | 0.9 | 1.7 | 0.00 | 0.00 | 0.00 | 92 | 1021.6 |
| 20260906005349 | 70 | 248 | 0.9 | 1.7 | 0.00 | 0.00 | 0.00 | 92 | 1021.7 |
| 20260906004851 | 70 | 214 | 0.0 | 2.6 | 0.00 | 0.00 | 0.00 | 91 | 1021.7 |
| 20260906004355 | 70 | 227 | 1.7 | 2.6 | 0.00 | 0.00 | 0.00 | 92 | 1021.7 |
| 20260906003846 | 70 | 228 | 0.0 | 3.5 | 0.00 | 0.00 | 0.00 | 91 | 1021.7 |
| 20260906003345 | 70 | 238 | 2.6 | 4.3 | 0.00 | 0.00 | 0.00 | 91 | 1021.8 |
| 20260906002343 | 71 | 227 | 3.5 | 4.3 | 0.00 | 0.00 | 0.00 | 92 | 1021.7 |
| 20260906001839 | 70 | 227 | 0.0 | 2.6 | 0.00 | 0.00 | 0.00 | 93 | 1021.7 |
| 20260906001335 | 69 | 103 | 0.0 | 0.0 | 0.00 | 0.00 | 0.00 | 93 | 1021.8 |
| 20260906000830 | 68 | 103 | 0.0 | 0.0 | 0.00 | 0.00 | 0.00 | 90 | 1021.8 |
| 20260906000330 | 70 | 49 | 0.0 | 0.0 | 0.00 | 0.00 | 0.00 | 91 | 1021.8 |
| 20260905235826 | 70 | 235 | 0.0 | 0.9 | 0.00 | 0.00 | 0.00 | 92 | 1021.7 |
| 20260905235325 | 70 | 234 | 0.0 | 2.6 | 0.00 | 0.00 | 0.00 | 91 | 1021.8 |
| 20260905234826 | 70 | 217 | 1.7 | 2.6 | 0.00 | 0.00 | 0.00 | 91 | 1021.8 |
| 20260905234321 | 70 | 250 | 1.7 | 2.6 | 0.00 | 0.00 | 0.00 | 92 | 1021.8 |
| 20260905233822 | 70 | 240 | 2.6 | 2.6 | 0.00 | 0.00 | 0.00 | 92 | 1021.8 |
| 20260905233314 | 70 | 214 | 0.0 | 2.6 | 0.00 | 0.00 | 0.00 | 91 | 1021.9 |
| 20260905232311 | 70 | 227 | 2.6 | 3.5 | 0.00 | 0.00 | 0.00 | 92 | 1021.8 |
| 20260905231808 | 70 | 183 | 2.6 | 3.5 | 0.00 | 0.00 | 0.00 | 91 | 1021.9 |
| 20260905231253 | 70 | 169 | 0.0 | 2.6 | 0.00 | 0.00 | 0.00 | 90 | 1021.9 |
| 20260905230244 | 70 | 203 | 1.7 | 3.5 | 0.00 | 0.00 | 0.00 | 91 | 1021.8 |
| 20260905225743 | 70 | 180 | 1.7 | 4.3 | 0.00 | 0.00 | 0.00 | 90 | 1021.8 |
| 20260905225246 | 70 | 206 | 1.7 | 6.1 | 0.00 | 0.00 | 0.00 | 90 | 1021.8 |
| 20260905224744 | 70 | 223 | 5.2 | 6.1 | 0.00 | 0.00 | 0.00 | 90 | 1021.6 |
| 20260905224243 | 71 | 224 | 4.3 | 6.1 | 0.00 | 0.00 | 0.00 | 89 | 1021.6 |
| 20260905223331 | 71 | 217 | 3.5 | 4.3 | 0.00 | 0.00 | 0.00 | 89 | 1021.7 |
| 20260905223109 | 71 | 230 | 1.7 | 3.5 | 0.00 | 0.00 | 0.00 | 88 | 1021.7 |
| 20260905222843 | 71 | 214 | 2.6 | 2.6 | 0.00 | 0.00 | 0.00 | 88 | 1021.6 |
| 20260905222637 | 72 | 228 | 1.7 | 3.5 | 0.00 | 0.00 | 0.00 | 87 | 1021.8 |
| 20260905222414 | 72 | 151 | 0.9 | 4.3 | 0.00 | 0.00 | 0.00 | 87 | 1021.8 |
| 20260905221755 | 72 | 154 | 3.5 | 5.2 | 0.00 | 0.00 | 0.00 | 86 | 1021.7 |
| 20260905215200 | 72 | 159 | 3.5 | 4.3 | 0.00 | 0.00 | 0.00 | 87 | 1021.6 |
| 20260905214156 | 72 | 210 | 3.5 | 4.3 | 0.00 | 0.00 | 0.00 | 87 | 1021.5 |
| 20260905213657 | 73 | 237 | 0.0 | 7.8 | 0.00 | 0.00 | 0.00 | 86 | 1021.5 |
| 20260905213157 | 73 | 240 | 4.3 | 9.6 | 0.00 | 0.00 | 0.00 | 86 | 1021.5 |
| 20260905212659 | 73 | 197 | 5.2 | 9.6 | 0.00 | 0.00 | 0.00 | 86 | 1021.4 |
| 20260905212142 | 73 | 214 | 6.1 | 6.1 | 0.00 | 0.00 | 0.00 | 87 | 1021.3 |
| 20260905211643 | 72 | 204 | 4.3 | 5.2 | 0.00 | 0.00 | 0.00 | 87 | 1021.4 |
| 20260905211142 | 72 | 231 | 3.5 | 5.2 | 0.00 | 0.00 | 0.00 | 87 | 1021.3 |
| 20260905210646 | 73 | 231 | 3.5 | 5.2 | 0.00 | 0.00 | 0.00 | 86 | 1021.3 |
| 20260905210140 | 73 | 212 | 3.5 | 6.1 | 0.00 | 0.00 | 0.00 | 86 | 1021.4 |
| 20260905205148 | 73 | 235 | 2.6 | 8.7 | 0.00 | 0.00 | 0.00 | 84 | 1021.3 |
| 20260905204620 | 73 | 203 | 6.1 | 8.7 | 0.00 | 0.00 | 0.00 | 85 | 1021.3 |
| 20260905204114 | 73 | 204 | 6.1 | 7.8 | 0.00 | 0.00 | 0.00 | 84 | 1021.3 |
| 20260905203610 | 73 | 221 | 3.5 | 4.3 | 0.00 | 0.00 | 0.00 | 83 | 1021.3 |
| 20260905203103 | 73 | 257 | 1.7 | 6.1 | 0.00 | 0.00 | 0.00 | 83 | 1021.3 |
| 20260905202603 | 74 | 178 | 2.6 | 6.1 | 0.00 | 0.00 | 0.00 | 82 | 1021.3 |
| 20260905202056 | 74 | 179 | 3.5 | 5.2 | 0.00 | 0.00 | 0.00 | 81 | 1021.2 |
| 20260905201046 | 74 | 197 | 3.5 | 7.8 | 0.00 | 0.00 | 0.00 | 79 | 1021.1 |
| 20260905200547 | 74 | 268 | 2.6 | 8.7 | 0.00 | 0.00 | 0.00 | 79 | 1021.1 |
| 20260905200054 | 74 | 228 | 4.3 | 8.7 | 0.00 | 0.00 | 0.00 | 77 | 1021.1 |
| 20260905195543 | 75 | 261 | 2.6 | 4.3 | 0.00 | 0.00 | 0.00 | 75 | 1021.1 |
| 20260905195039 | 75 | 240 | 2.6 | 4.3 | 0.00 | 0.00 | 0.00 | 74 | 1021.1 |
| 20260905194537 | 75 | 238 | 1.7 | 4.3 | 0.00 | 0.00 | 0.00 | 73 | 1021.1 |
| 20260905194036 | 76 | 248 | 2.6 | 6.1 | 0.00 | 0.00 | 0.00 | 72 | 1021.0 |
| 20260905193538 | 76 | 226 | 4.3 | 6.1 | 0.00 | 0.00 | 0.00 | 71 | 1021.1 |
| 20260905193040 | 77 | 209 | 3.5 | 6.1 | 0.00 | 0.00 | 0.00 | 70 | 1021.0 |
| 20260905192548 | 77 | 227 | 2.6 | 5.2 | 0.00 | 0.00 | 0.00 | 70 | 1021.1 |
| 20260905191034 | 77 | 217 | 4.3 | 5.2 | 0.00 | 0.00 | 0.00 | 69 | 1020.8 |
| 20260905190528 | 77 | 197 | 3.5 | 5.2 | 0.00 | 0.00 | 0.00 | 68 | 1020.8 |
| 20260905185528 | 77 | 212 | 1.7 | 4.3 | 0.00 | 0.00 | 0.00 | 68 | 1020.7 |
| 20260905185018 | 78 | 176 | 3.5 | 4.3 | 0.00 | 0.00 | 0.00 | 68 | 1020.6 |
| 20260905184003 | 78 | 123 | 1.7 | 2.6 | 0.00 | 0.00 | 0.00 | 66 | 1020.5 |
| 20260905183519 | 78 | 279 | 0.0 | 4.3 | 0.00 | 0.00 | 0.00 | 66 | 1020.4 |
| 20260905183018 | 79 | 233 | 2.6 | 6.1 | 0.00 | 0.00 | 0.00 | 65 | 1020.3 |
| 20260905182515 | 79 | 309 | 3.5 | 6.1 | 0.00 | 0.00 | 0.00 | 65 | 1020.2 |
| 20260905182021 | 79 | 309 | 2.6 | 8.7 | 0.00 | 0.00 | 0.00 | 64 | 1020.2 |
| 20260905180947 | 80 | 133 | 4.3 | 10.4 | 0.00 | 0.00 | 0.00 | 63 | 1020.0 |
| 20260905180445 | 80 | 269 | 7.0 | 10.4 | 0.00 | 0.00 | 0.00 | 63 | 1020.0 |
| 20260905174936 | 81 | 204 | 4.3 | 11.3 | 0.00 | 0.00 | 0.00 | 62 | 1019.7 |
| 20260905174441 | 81 | 255 | 3.5 | 11.3 | 0.00 | 0.00 | 0.00 | 60 | 1019.8 |
| 20260905173937 | 81 | 162 | 3.5 | 11.3 | 0.00 | 0.00 | 0.00 | 60 | 1019.8 |
| 20260905173441 | 82 | 203 | 3.5 | 9.6 | 0.00 | 0.00 | 0.00 | 58 | 1019.8 |
| 20260905172935 | 82 | 220 | 3.5 | 10.4 | 0.00 | 0.00 | 0.00 | 55 | 1019.7 |
| 20260905172439 | 83 | 193 | 7.0 | 10.4 | 0.00 | 0.00 | 0.00 | 55 | 1019.6 |
| 20260905171936 | 83 | 233 | 3.5 | 10.4 | 0.00 | 0.00 | 0.00 | 53 | 1019.6 |
| 20260905171439 | 84 | 274 | 4.3 | 10.4 | 0.00 | 0.00 | 0.00 | 50 | 1019.7 |
| 20260905170935 | 84 | 192 | 4.3 | 10.4 | 0.00 | 0.00 | 0.00 | 50 | 1019.7 |
| 20260905170437 | 85 | 231 | 3.5 | 9.6 | 0.00 | 0.00 | 0.00 | 48 | 1019.7 |
| 20260905165936 | 85 | 155 | 3.5 | 9.6 | 0.00 | 0.00 | 0.00 | 47 | 1019.6 |
| 20260905165438 | 86 | 227 | 4.3 | 10.4 | 0.00 | 0.00 | 0.00 | 45 | 1019.6 |
| 20260905164934 | 86 | 182 | 2.6 | 11.3 | 0.00 | 0.00 | 0.00 | 44 | 1019.6 |
| 20260905164437 | 86 | 196 | 7.0 | 12.2 | 0.00 | 0.00 | 0.00 | 43 | 1019.5 |
| 20260905163936 | 86 | 269 | 7.0 | 12.2 | 0.00 | 0.00 | 0.00 | 42 | 1019.5 |
| 20260905163436 | 87 | 221 | 3.5 | 12.2 | 0.00 | 0.00 | 0.00 | 42 | 1019.6 |
| 20260905162935 | 87 | 276 | 4.3 | 10.4 | 0.00 | 0.00 | 0.00 | 42 | 1019.4 |
| 20260905162436 | 87 | 295 | 5.2 | 10.4 | 0.00 | 0.00 | 0.00 | 41 | 1019.4 |
| 20260905161936 | 87 | 230 | 5.2 | 11.3 | 0.00 | 0.00 | 0.00 | 41 | 1019.4 |
| 20260905161434 | 88 | 234 | 7.0 | 12.2 | 0.00 | 0.00 | 0.00 | 41 | 1019.4 |
| 20260905160936 | 88 | 220 | 6.1 | 12.2 | 0.00 | 0.00 | 0.00 | 41 | 1019.4 |
| 20260905160435 | 88 | 161 | 3.5 | 12.2 | 0.00 | 0.00 | 0.00 | 42 | 1019.4 |
| 20260905155938 | 88 | 238 | 7.0 | 12.2 | 0.00 | 0.00 | 0.00 | 42 | 1019.3 |
| 20260905155433 | 88 | 272 | 1.7 | 13.0 | 0.00 | 0.00 | 0.00 | 43 | 1019.4 |
| 20260905154935 | 89 | 245 | 8.7 | 13.0 | 0.00 | 0.00 | 0.00 | 43 | 1019.4 |
| 20260905153934 | 89 | 231 | 6.1 | 12.2 | 0.00 | 0.00 | 0.00 | 42 | 1019.3 |
| 20260905153433 | 89 | 252 | 6.1 | 13.9 | 0.00 | 0.00 | 0.00 | 41 | 1019.4 |
| 20260905152933 | 89 | 264 | 7.8 | 13.9 | 0.00 | 0.00 | 0.00 | 43 | 1019.3 |
| 20260905152432 | 90 | 193 | 9.6 | 13.0 | 0.00 | 0.00 | 0.00 | 43 | 1019.4 |
| 20260905151934 | 90 | 250 | 5.2 | 9.6 | 0.00 | 0.00 | 0.00 | 43 | 1019.3 |
| 20260905150435 | 90 | 247 | 6.1 | 11.3 | 0.00 | 0.00 | 0.00 | 41 | 1019.3 |
| 20260905145931 | 90 | 206 | 5.2 | 13.0 | 0.00 | 0.00 | 0.00 | 42 | 1019.4 |
| 20260905145432 | 90 | 274 | 4.3 | 13.0 | 0.00 | 0.00 | 0.00 | 41 | 1019.5 |
| 20260905143929 | 90 | 265 | 5.2 | 12.2 | 0.00 | 0.00 | 0.00 | 43 | 1019.5 |
| 20260905142927 | 90 | 209 | 7.8 | 13.9 | 0.00 | 0.00 | 0.00 | 42 | 1019.5 |
| 20260905142424 | 90 | 259 | 6.1 | 10.4 | 0.00 | 0.00 | 0.00 | 42 | 1019.6 |
| 20260905140911 | 90 | 199 | 6.1 | 13.0 | 0.00 | 0.00 | 0.00 | 41 | 1019.6 |
| 20260905140406 | 91 | 230 | 6.1 | 12.2 | 0.00 | 0.00 | 0.00 | 41 | 1019.5 |
| 20260905135834 | 91 | 266 | 6.1 | 11.3 | 0.00 | 0.00 | 0.00 | 40 | 1019.6 |
| 20260905135334 | 91 | 173 | 7.0 | 11.3 | 0.00 | 0.00 | 0.00 | 40 | 1019.6 |
| 20260905134834 | 91 | 209 | 3.5 | 6.1 | 0.00 | 0.00 | 0.00 | 39 | 1019.7 |
| 20260905134331 | 91 | 281 | 4.3 | 15.6 | 0.00 | 0.00 | 0.00 | 38 | 1019.7 |
| 20260905133332 | 91 | 252 | 1.7 | 9.6 | 0.00 | 0.00 | 0.00 | 39 | 1019.7 |
| 20260905132832 | 91 | 281 | 4.3 | 12.2 | 0.00 | 0.00 | 0.00 | 38 | 1019.8 |
| 20260905131832 | 91 | 268 | 10.4 | 14.8 | 0.00 | 0.00 | 0.00 | 38 | 1019.9 |
| 20260905131334 | 91 | 272 | 7.0 | 11.3 | 0.00 | 0.00 | 0.00 | 38 | 1020.0 |
| 20260905130830 | 91 | 203 | 4.3 | 9.6 | 0.00 | 0.00 | 0.00 | 37 | 1020.0 |
| 20260905130331 | 91 | 254 | 5.2 | 12.2 | 0.00 | 0.00 | 0.00 | 36 | 1020.1 |
| 20260905125831 | 90 | 266 | 5.2 | 12.2 | 0.00 | 0.00 | 0.00 | 37 | 1020.1 |
| 20260905125333 | 91 | 264 | 8.7 | 12.2 | 0.00 | 0.00 | 0.00 | 36 | 1020.2 |
| 20260905123831 | 91 | 264 | 3.5 | 9.6 | 0.00 | 0.00 | 0.00 | 36 | 1020.4 |
| 20260905123333 | 91 | 285 | 5.2 | 9.6 | 0.00 | 0.00 | 0.00 | 34 | 1020.2 |
| 20260905122829 | 91 | 254 | 3.5 | 10.4 | 0.00 | 0.00 | 0.00 | 35 | 1020.4 |
| 20260905121832 | 91 | 251 | 4.3 | 10.4 | 0.00 | 0.00 | 0.00 | 34 | 1020.4 |
| 20260905121332 | 91 | 210 | 1.7 | 13.0 | 0.00 | 0.00 | 0.00 | 40 | 1020.5 |
| 20260905120829 | 90 | 226 | 7.0 | 13.0 | 0.00 | 0.00 | 0.00 | 39 | 1020.5 |
| 20260905120334 | 90 | 235 | 5.2 | 12.2 | 0.00 | 0.00 | 0.00 | 41 | 1020.5 |
| 20260905115321 | 90 | 250 | 7.0 | 15.6 | 0.00 | 0.00 | 0.00 | 40 | 1020.5 |
| 20260905114818 | 90 | 166 | 1.7 | 13.9 | 0.00 | 0.00 | 0.00 | 43 | 1020.6 |
| 20260905114321 | 89 | 212 | 7.0 | 14.8 | 0.00 | 0.00 | 0.00 | 43 | 1020.6 |
| 20260905113818 | 89 | 219 | 8.7 | 14.8 | 0.00 | 0.00 | 0.00 | 41 | 1020.7 |
| 20260905113318 | 89 | 151 | 3.5 | 11.3 | 0.00 | 0.00 | 0.00 | 42 | 1020.6 |
| 20260905112818 | 89 | 217 | 3.5 | 11.3 | 0.00 | 0.00 | 0.00 | 44 | 1020.6 |
| 20260905112312 | 89 | 138 | 4.3 | 11.3 | 0.00 | 0.00 | 0.00 | 44 | 1020.7 |
| 20260905111814 | 89 | 141 | 6.1 | 12.2 | 0.00 | 0.00 | 0.00 | 45 | 1020.7 |
| 20260905111314 | 88 | 141 | 5.2 | 12.2 | 0.00 | 0.00 | 0.00 | 44 | 1020.7 |
| 20260905110812 | 88 | 179 | 7.0 | 12.2 | 0.00 | 0.00 | 0.00 | 45 | 1020.7 |
| 20260905105810 | 88 | 210 | 4.3 | 12.2 | 0.00 | 0.00 | 0.00 | 45 | 1020.7 |
| 20260905105306 | 88 | 186 | 7.0 | 11.3 | 0.00 | 0.00 | 0.00 | 45 | 1020.7 |
| 20260905104306 | 87 | 224 | 6.1 | 11.3 | 0.00 | 0.00 | 0.00 | 46 | 1020.8 |
| 20260905103807 | 87 | 217 | 7.8 | 11.3 | 0.00 | 0.00 | 0.00 | 45 | 1021.0 |
| 20260905103304 | 87 | 210 | 6.1 | 10.4 | 0.00 | 0.00 | 0.00 | 45 | 1021.0 |
| 20260905102808 | 87 | 203 | 5.2 | 10.4 | 0.00 | 0.00 | 0.00 | 46 | 1021.0 |
| 20260905102306 | 87 | 121 | 5.2 | 8.7 | 0.00 | 0.00 | 0.00 | 47 | 1021.1 |
| 20260905101303 | 86 | 162 | 7.0 | 9.6 | 0.00 | 0.00 | 0.00 | 48 | 1021.0 |
| 20260905100805 | 86 | 188 | 5.2 | 11.3 | 0.00 | 0.00 | 0.00 | 49 | 1021.0 |
| 20260905095306 | 85 | 193 | 3.5 | 6.1 | 0.00 | 0.00 | 0.00 | 52 | 1021.1 |
| 20260905094803 | 85 | 214 | 4.3 | 6.1 | 0.00 | 0.00 | 0.00 | 51 | 1021.0 |
| 20260905094253 | 84 | 140 | 3.5 | 6.1 | 0.00 | 0.00 | 0.00 | 50 | 1021.1 |
| 20260905093754 | 85 | 202 | 4.3 | 6.1 | 0.00 | 0.00 | 0.00 | 52 | 1021.1 |
| 20260905093251 | 84 | 210 | 4.3 | 6.1 | 0.00 | 0.00 | 0.00 | 52 | 1021.2 |
| 20260905092750 | 83 | 145 | 5.2 | 7.8 | 0.00 | 0.00 | 0.00 | 53 | 1021.1 |
| 20260905092251 | 83 | 169 | 5.2 | 7.8 | 0.00 | 0.00 | 0.00 | 54 | 1021.2 |
| 20260905091750 | 83 | 212 | 3.5 | 7.8 | 0.00 | 0.00 | 0.00 | 54 | 1021.3 |
| 20260905091245 | 82 | 151 | 4.3 | 8.7 | 0.00 | 0.00 | 0.00 | 54 | 1021.1 |